Simultaneous Nadir Overpasses (SNOs) Predictions

Prediction of SNOs between GOES-14 and AQUA Satellite Orbit:

Table of predicted SNOs for the next 14.0 days since TLE Epoch: 10/7/2023
Index Date Time (GOES-14) GOES-14 Lat,Lon AQUA Lat,Lon Distance(km) Time Diff (sec)
1 10/08/2023 09:09:35 0.21,-108.61 0.13,-108.32 32.39 80
2 10/10/2023 08:54:52 0.22,-108.60 -0.61,-104.73 440.64 80
3 10/10/2023 21:12:57 -0.19,-108.53 -0.46,-109.75 139.27 80
4 10/12/2023 21:00:53 -0.19,-108.53 0.31,-106.16 270.02 80
5 10/13/2023 09:18:49 0.17,-108.61 0.74,-111.15 289.75 80
6 10/15/2023 09:06:44 0.17,-108.61 -0.06,-107.55 120.18 80
7 10/15/2023 21:24:47 -0.15,-108.53 -1.02,-112.57 459.56 80
8 10/17/2023 21:10:00 -0.16,-108.53 -0.25,-108.96 49.44 80
9 10/19/2023 20:57:53 -0.16,-108.52 0.54,-105.35 360.49 80
10 10/20/2023 09:15:47 0.14,-108.59 0.51,-110.34 199.17 80
